Regional Weather Roundup
Issued by NWS Austin/San Antonio, TX

Home | Current Version | Previous Version | Text Only | Print | Product List | Glossary On
Versions: 1 2 3 4 5 6 7 8 9 10 11 12 13 14 15 16 17 18 19 20 21 22 23 24 25 26 27 28 29 30 31 32 33 34 35 36 37 38 39 40 41 42 43 44 45 46 47 48 49 50
114
ASUS44 KEWX 182101
RWREWX
SOUTH TEXAS REGIONAL WEATHER ROUNDUP
NATIONAL WEATHER SERVICE AUSTIN/SAN ANTONIO TX
400 PM CDT WED OCT 18 2017

NOTE: "FAIR" INDICATED FEW OR NO CLOUDS BELOW 12,000 FEET WITH NO
SIGNIFICANT WEATHER AND/OR OBSTRUCTIONS TO VISIBILITY.

* - THESE STATIONS ARE NOT NWS OR FAA STATIONS...AND ARE NOT SUBJECT
    TO NWS AND FAA QUALITY CONTROL.

TXZ171-172-183>190-182200-
TEXAS HILL COUNTRY AND EDWARDS PLATEAU

CITY           SKY/WX    TMP DP  RH WIND       PRES   REMARKS
JUNCTION       MOSUNNY   82  43  25 S9G18     30.08F
*LLANO         SUNNY     84  43  23 CALM      30.11F
BURNET         SUNNY     82  43  25 SE6       30.11F
*HORSESHOE BAY SUNNY     83  43  24 S7        30.09F
*KERRVILLE     MOSUNNY   78  46  32 S7        30.12S
*FREDERICKSBRG SUNNY     78  42  27 S8        30.11F
*ROCKSPRINGS   NOT AVBL
*BOERNE STAGE  SUNNY     75  43  31 S5        30.12F
*CASTROVILLE   SUNNY     83  46  26 SW7       30.10F
HONDO          MOSUNNY   83  48  29 S9        30.09F
*UVALDE        MOSUNNY   79  49  34 SE7       30.09F
DEL RIO        PTSUNNY   79  50  36 SE16      30.05F
LAUGHLIN AFB   PTSUNNY   81  51  35 S14       30.05F
CARRIZO SPRGS  MOSUNNY   81  50  34 SE8       30.06S
*EAGLE PASS    NOT AVBL
$$

TXZ173-191>194-202-209-217>225-228-182200-
CENTRAL AND SOUTH CENTRAL TEXAS

CITY           SKY/WX    TMP DP  RH WIND       PRES   REMARKS
GEORGETOWN     SUNNY     81  46  29 S9        30.11F
AUSTIN/BERGSTM MOSUNNY   81  47  30 SE6       30.09F
AUSTIN/MABRY   SUNNY     83  45  26 VRB6      30.10F
*AUSTIN/EXEC   SUNNY     81  46  30 CALM      30.10F
*LAGO VISTA    SUNNY     80  46  29 SE6       30.11F
SAN MARCOS       N/A    N/A N/A N/A MISG        N/A
NEW BRAUNFELS  SUNNY     82  47  29 SE6       30.08F
RANDOLPH AFB   SUNNY     82  46  28 S7        30.09F
PT SAN ANTONIO SUNNY     82  49  31 S3        30.08S
SAN ANTONIO    PTSUNNY   79  45  29 CALM      30.10F
STINSON FIELD  SUNNY     84  48  28 SE5       30.07F
*LA GRANGE     SUNNY     82  49  31 S5        30.09S
*GIDDINGS      SUNNY     82  42  25 SE5       30.11F
*GONZALES      SUNNY     83  51  32 S5        30.09F
$$

TXZ163>164-176>182-195>201-210>213-226-227-235-182200-
SOUTHEAST TEXAS

CITY           SKY/WX    TMP DP  RH WIND       PRES   REMARKS
COLLEGE STN    SUNNY     81  47  30 VRB3      30.11F
*BRYAN         SUNNY     80  45  28 S6        30.12F
*CALDWELL      SUNNY     80  47  30 CALM      30.11F
*CROCKETT        N/A     81  50  34 SE6       30.14F
*BRENHAM       SUNNY     82  50  33 E7        30.12S
HUNTSVILLE     SUNNY     80  48  32 SW5       30.11F
CONROE         SUNNY     80  54  40 VRB3      30.11F
HOUSTON BUSH   MOSUNNY   83  59  44 SE6       30.10F
HOUSTON HOBBY  MOSUNNY   83  60  45 E9        30.10S
*HOUSTON SW AP SUNNY     82  60  47 CALM      30.10F
PEARLAND       SUNNY     83  61  47 E8        30.12S HAZE
HOUSTON HOOKS  SUNNY     82  53  36 VRB5      30.11F
ELLINGTON FLD  MOSUNNY   79  57  47 E9        30.12
SUGAR LAND     SUNNY     84  55  36 SE7       30.10S
*HOUSTON EXEC  SUNNY     84  54  34 SE6       30.11F
*CLEVELAND MUN SUNNY     82  54  38 S5        30.12F
*WHARTON       SUNNY     83  49  31 CALM      30.10F
*COLUMBUS      FAIR      81  47  30 SW3       30.11F
*EAGLE LAKE    CLEAR     84  51  31 NE3       30.10S
$$

TXZ214>216-236>238-182200-
THE UPPER TEXAS COAST

CITY           SKY/WX    TMP DP  RH WIND       PRES   REMARKS
*ORANGE        SUNNY     81  57  43 NE5       30.13F
PORT ARTHUR    SUNNY     80  59  48 SE5       30.11F
GALVESTON      MOSUNNY   80  63  55 E9        30.12F
ANGLETON       SUNNY     82  61  48 E9        30.10S
*BAY CITY      MOSUNNY   84  59  42 SE8       30.09S
PALACIOS       SUNNY     79  60  52 S10       30.09F
$$

TXZ229>234-239>247-182200-
TEXAS COASTAL BEND AND RIO GRANDE PLAINS

CITY           SKY/WX    TMP DP  RH WIND       PRES   REMARKS
VICTORIA       SUNNY     84  56  38 SE7       30.08F
*BEEVILLE      SUNNY     84  35  17 S6        30.08S
ROCKPORT       SUNNY     79  63  57 E10       30.08F HAZE
*PORT ARANSAS  NOT AVBL
*PORT LAVACA   SUNNY     81  57  44 E5        30.09F
*INGLESIDE     NOT AVBL
CORPUS CHRISTI MOSUNNY   81  59  47 E9        30.07F
CORPUS NAS     NOT AVBL
*ROBSTOWN      SUNNY     83  59  43 NE10      30.07S
ALICE          SUNNY     86  49  27 CALM      30.06F
KINGSVILLE NAS NOT AVBL
COTULLA        MOSUNNY   83  44  25 VRB7      30.06F
*FAITH RANCH   SUNNY     79  52  38 SE9       30.06F
LAREDO         MOSUNNY   84  51  31 S8        30.06F
$$

TXZ248>255-182200-
DEEP SOUTH TEXAS

CITY           SKY/WX    TMP DP  RH WIND       PRES   REMARKS
BROWNSVILLE    SUNNY     84  64  50 NE9       30.06F
PORT ISABEL    SUNNY     81  63  54 E12       30.06F
*SOUTH PADRE   NOT AVBL
HARLINGEN      SUNNY     85  63  47 E8        30.04F
*HEBBRONVILLE  SUNNY     84  47  28 CALM      30.08S
MCALLEN        SUNNY     84  57  39 SE6       30.05F
*WESLACO       SUNNY     85  58  40 CALM      30.04F
FALFURRIAS     SUNNY     86  54  33 E7        30.05F
EDINBURG       SUNNY     86  55  34 E6        30.05F
*ZAPATA        SUNNY     84  50  31 S3        30.05F
$$

TXZ213>215-236>238-242>244-246-247-251-254-255-182200-
CMAN STATIONS

STATION/POSITION TIME  TEMP    WIND        PRES    WAVE
                       AIR SEA DIR/SP/G            HT/PER
                 (UTC) (F)     (DEG/KT/KT) (MB)    (FT/S)
SABINE PASS      2030   75 76  140/ 10/ 11 1021.4
SEA RIM ST PARK  2000   75     130/  8/ 10 1020.7
NORTH JETTY/GLS  2030      77  110/  4/  6 1019.5
EAGLE POINT      2030   75 73  110/  5/  6 1020.0
MORGANS POINT    2030   77 78  130/  6/  9 1019.8
PORT O`CONNOR    2030   75 75   70/  4/  5 1018.8
MALAQUITE BEACH  2024   76 78   70/  8/ 10 1018.3
BAFFIN BAY       2024   76 75   80/  8/ 10 1018.6
PORT ISABEL      2024   77 78   40/  9/ 11 1018.1
$$




USA.gov is the U.S. government's official web portal to all federal, state and local government web resources and services.